Location: El Azufral
(10.3513°N, 67.1528°W)
Time: 19:31:08
(UTC+00:00)

Cosmos 1726 - Pass Details

Date: 13 June 2024
Orbit: 369 x 375 km, 82.5° (Epoch: 24 July)

Event Time Altitude Azimuth Distance (km) Brightness Sun altitude
Rises 23:13:46 0° 358° (N) 2,208 5.8 -6.0°
Reaches altitude 10° 23:15:44 10° 360° (N) 1,360 4.7 -6.4°
Maximum altitude 23:18:40 76° 84° (E) 383 1.4 -7.1°
Drops below altitude 10° 23:21:37 10° 172° (S) 1,367 4.0 -7.8°
Enters shadow 23:24:19 -3° 174° (S) 2,530 5.4 -8.4°
